OBJECT_NAME,OBJECT_ID,EPOCH,MEAN_MOTION,ECCENTRICITY,INCLINATION,RA_OF_ASC_NODE,ARG_OF_PERICENTER,MEAN_ANOMALY,EPHEMERIS_TYPE,CLASSIFICATION_TYPE,NORAD_CAT_ID,ELEMENT_SET_NO,REV_AT_EPOCH,BSTAR,MEAN_MOTION_DOT,MEAN_MOTION_DDOT COSMOS 1408 DEB,1982-092RU,2026-09-11T17:11:53.343168,15.48346627,.00134273,82.5633,138.0985,304.4763,55.5218,0,U,50032,999,26824,.6561691E-4,.3524E-4,0 COSMOS 1408 DEB,1982-092SW,2026-09-12T02:19:06.834432,15.95782759,.0009168,82.6045,137.5505,128.5158,231.6942,0,U,50058,999,27112,.3129E-3,.126504E-2,.483E-5 COSMOS 1408 DEB,1982-092ALR,2026-09-11T17:41:56.855040,15.76194243,.0015321,82.5644,145.9137,201.0136,159.0501,0,U,50621,999,26522,.26479E-3,.41808E-3,0